Location: Arthez
(43.0833°N, 0.2500°W)
Time: 22:52:57
(UTC+00:00)

Cosmos 2278 Rocket - Pass Details

Date: 23 October 2021
Orbit: 841 x 845 km, 71.0° (Epoch: 27 November)

Event Time Altitude Azimuth Distance (km) Brightness Sun altitude
Rises 19:43:50 0° 342° (NNW) 3,414 5.7 -29.5°
Reaches altitude 10° 19:46:37 10° 354° (N) 2,475 4.8 -30.0°
Enters shadow 19:48:29 19° 7° (N) 1,935 4.1 -30.3°
